This demonstration page uses our WeatherBlox Daily Observations layout. Learn more.

Left ArrowRight Arrow

38.88101, -77.10428

Hourly Observations for July 7, 2022

Temp ( °F °C ) Dew Point ( °F °C ) Humidity (%) Winds ( mph kmh ) Pressure ( in mb ) Visibility ( mi km ) Precip ( " mm )
12:52 am 00:52 Mostly Cloudy 78 25.6 72 22.2 82 82 NE 3 6 29.90 1013 10 16 0.00 0.00
1:52 am 01:52 Mostly Cloudy 77 25 72 22.2 85 85 N 8 13 29.88 1012 10 16 0.00 0.00
2:40 am 02:40 Mostly Cloudy 77 25 72 22.2 85 85 NNE 8 13 29.89 1012 10 16 0.00 0.00
2:52 am 02:52 Mostly Cloudy 77 25 72 22.2 85 85 NE 6 9 29.89 1012 10 16 0.00 0.00
3:19 am 03:19 Mostly Cloudy 77 25 72 22.2 85 85 NNE 9 15 29.90 1012 10 16 0.00 0.00
3:52 am 03:52 Cloudy 77 25 72 22.2 85 85 N 8 13 29.89 1012 10 16 0.00 0.00
4:52 am 04:52 Cloudy 77 25 72 22.2 85 85 N 12 19 29.90 1013 10 16 0.00 0.00
5:52 am 05:52 Cloudy 77 25 72 22.2 85 85 NNE 15 24 29.91 1013 10 16 0.00 0.00
6:05 am 06:05 Cloudy 77 25 72 22.2 85 85 NNE 13 20 29.92 1013 10 16 0.00 0.00
6:22 am 06:22 Cloudy 77 25 71 21.7 82 82 NE 10 17 29.92 1013 10 16 0.00 0.00
6:49 am 06:49 Cloudy 75 24 72 22 89 89 ENE 16 26 29.93 1013 10 16 0.00 0.00
6:52 am 06:52 Mostly Cloudy 76 24.4 71 21.7 85 85 NE 15 24 29.93 1013 10 16 0.00 0.00
7:28 am 07:28 Cloudy 75 23.9 68 20 79 79 NE 8 13 29.94 1014 10 16 0.00 0.00
7:41 am 07:41 Cloudy with Light Rain 74 23.3 69 20.6 85 85 NE 10 17 29.94 1014 9 14 0.01 0.25
7:52 am 07:52 Cloudy with Light Rain 74 23.3 69 20.6 85 85 NNE 10 17 29.94 1014 5 8 0.02 0.51
8:52 am 08:52 Cloudy 74 23.3 68 20 82 82 N 9 15 29.96 1015 10 16 0.01 0.25
9:52 am 09:52 Cloudy 75 23.9 68 20 79 79 NNE 9 15 29.96 1015 10 16 0.00 0.00
10:52 am 10:52 Cloudy 76 24.4 68 20 77 77 NNE 7 11 29.97 1015 10 16 0.00 0.00
11:16 am 11:16 Cloudy 77 25 69 20.6 77 77 NNE 7 11 29.98 1015 10 16 0.00 0.00
11:52 am 11:52 Cloudy 80 26.7 69 20.6 69 69 NNE 10 17 29.97 1015 10 16 0.00 0.00
12:52 pm 12:52 Cloudy 80 26.7 68 20 67 67 N 7 11 29.97 1015 10 16 0.00 0.00
1:52 pm 13:52 Cloudy 80 26.7 68 20 67 67 N 8 13 29.97 1015 10 16 0.00 0.00
2:34 pm 14:34 Cloudy 80 26.7 68 20 67 67 NNE 8 13 29.98 1015 10 16 0.00 0.00
2:52 pm 14:52 Cloudy 80 26.7 68 20 67 67 NE 5 7 29.98 1015 10 16 0.00 0.00
2:59 pm 14:59 Cloudy 80 26.7 68 20 67 67 E 6 9 29.98 1015 10 16 0.00 0.00
3:14 pm 15:14 Cloudy 80 26.7 68 20 67 67 E 7 11 29.98 1015 10 16 0.00 0.00
3:52 pm 15:52 Cloudy 81 27.2 69 20.6 67 67 ENE 6 9 29.96 1015 10 16 0.00 0.00
4:52 pm 16:52 Cloudy 81 27.2 69 20.6 67 67 E 6 9 29.96 1015 10 16 0.00 0.00
5:52 pm 17:52 Cloudy 80 26.7 69 20.6 69 69 ENE 9 15 29.95 1014 10 16 0.00 0.00
6:52 pm 18:52 Mostly Cloudy 81 27.2 69 20.6 67 67 E 6 9 29.96 1015 10 16 0.00 0.00
6:56 pm 18:56 Mostly Cloudy 81 27.2 70 21.1 69 69 ENE 6 9 29.96 1014 10 16 0.00 0.00
7:49 pm 19:49 Mostly Cloudy 81 27 68 20 66 66 NE 6 9 29.96 1014 10 16 0.00 0.00
7:52 pm 19:52 Mostly Cloudy 80 26.7 68 20 67 67 NE 6 9 29.95 1014 10 16 0.00 0.00
8:52 pm 20:52 Mostly Cloudy 79 26.1 68 20 69 69 E 6 9 29.96 1015 10 16 0.00 0.00
9:52 pm 21:52 Partly Cloudy 77 25 69 20.6 77 77 SE 6 9 29.99 1016 10 16 0.00 0.00
10:52 pm 22:52 Mostly Cloudy 75 23.9 69 20.6 82 82 SSE 3 6 30.00 1016 10 16 0.00 0.00
11:52 pm 23:52 Cloudy 75 23.9 69 20.6 82 82 Calm 30.01 1016 10 16 0.00 0.00

Powered by AerisWeather